This is the latest recevied weather packets stored in our database for station/object DB0OHA-10. If no packets are shown the sender has not sent any weather packets the latest 10 day(s).
| Time | Temp. | Humidity | Pressure | Rain* | Wind** | Luminosity | Snow |
|---|---|---|---|---|---|---|---|
| 1777376722 | 16.11° C | 41% | 1022.8 hPa | 0 mm | - | 724 W/m² | - |
| 1777375822 | 15.56° C | 40% | 1022.7 hPa | 0 mm | - | 752 W/m² | - |
| 1777374922 | 15° C | 41% | 1022.7 hPa | 0 mm | - | 761 W/m² | - |
| 1777374022 | 16.11° C | 40% | 1022.7 hPa | 0 mm | - | 747 W/m² | - |
| 1777373122 | 16.11° C | 42% | 1022.6 hPa | 0 mm | - | 696 W/m² | - |
| 1777372222 | 15.56° C | 39% | 1022.5 hPa | 0 mm | - | 612 W/m² | - |
| 1777371322 | 15.56° C | 40% | 1022.5 hPa | 0 mm | - | 677 W/m² | - |
| 1777370422 | 15.56° C | 42% | 1022.5 hPa | 0 mm | - | 752 W/m² | - |
| 1777369522 | 15° C | 43% | 1022.7 hPa | 0 mm | - | 735 W/m² | - |
| 1777368622 | 14.44° C | 44% | 1022.6 hPa | 0 mm | - | 645 W/m² | - |
| 1777367722 | 13.89° C | 44% | 1022.7 hPa | 0 mm | - | 580 W/m² | - |
| 1777366822 | 13.89° C | 45% | 1022.7 hPa | 0 mm | - | 529 W/m² | - |
| 1777365923 | 13.89° C | 45% | 1022.6 hPa | 0 mm | - | 608 W/m² | - |
| 1777365022 | 13.33° C | 47% | 1022.5 hPa | 0 mm | - | 547 W/m² | - |
| 1777364123 | 13.33° C | 46% | 1022.5 hPa | 0 mm | - | 522 W/m² | - |
| 1777363222 | 12.78° C | 48% | 1022.4 hPa | 0 mm | - | 503 W/m² | - |
| 1777362323 | 12.22° C | 51% | 1022.5 hPa | 0 mm | - | 420 W/m² | - |
| 1777361423 | 11.67° C | 52% | 1022.2 hPa | 0 mm | - | 429 W/m² | - |
| 1777360522 | 11.11° C | 53% | 1022.2 hPa | 0 mm | - | 439 W/m² | - |
| 1777359623 | 10° C | 53% | 1022.2 hPa | 0 mm | - | 327 W/m² | - |
| 1777358728 | 10° C | 53% | 1022.3 hPa | 0 mm | - | 253 W/m² | - |
| 1777358723 | 10° C | 53% | 1022.3 hPa | 0 mm | - | 253 W/m² | - |
| 1777357823 | 9.44° C | 55% | 1022.2 hPa | 0 mm | - | 185 W/m² | - |
| 1777356928 | 8.89° C | 55% | 1022.1 hPa | 0 mm | - | 236 W/m² | - |
| 1777356923 | 8.89° C | 55% | 1022.1 hPa | 0 mm | - | 236 W/m² | - |
* Rain latest hour (hover to see other rain measurements)
** Current wind speed in m/s (hover to see current wind gust speed)